| time (UTC) | temp F | wind direction | speed knots | gust knots | rain 1hr in | rain 24hr in | rain mn in | humidity % | barometer mb |
| 20260505064554 | 53 | 5 | 0.0 | 7.0 | 0.00 | 0.00 | 0.00 | 64 | 1011.1 |
| 20260505063100 | 54 | 5 | 0.9 | 8.7 | 0.00 | 0.00 | 0.00 | 64 | 1011.1 |
| 20260505061601 | 54 | 5 | 2.6 | 9.6 | 0.00 | 0.00 | 0.00 | 63 | 1010.9 |
| 20260505060059 | 54 | 5 | 2.6 | 7.8 | 0.00 | 0.00 | 0.00 | 62 | 1010.8 |
| 20260505054558 | 55 | 5 | 1.7 | 11.3 | 0.00 | 0.00 | 0.00 | 61 | 1010.9 |
| 20260505053103 | 56 | 0 | 1.7 | 8.7 | 0.00 | 0.00 | 0.00 | 59 | 1010.8 |
| 20260505051553 | 56 | 5 | 1.7 | 7.0 | 0.00 | 0.00 | 0.00 | 57 | 1010.6 |
| 20260505050127 | 57 | 5 | 2.6 | 7.0 | 0.00 | 0.00 | 0.00 | 54 | 1010.6 |
| 20260505041605 | 59 | 5 | 1.7 | 7.0 | 0.00 | 0.00 | 0.00 | 47 | 1009.9 |
| 20260505040100 | 60 | 5 | 0.0 | 9.6 | 0.00 | 0.00 | 0.00 | 45 | 1009.6 |
| 20260505034552 | 59 | 5 | 0.9 | 3.5 | 0.00 | 0.00 | 0.00 | 45 | 1009.4 |
| 20260505033053 | 60 | 5 | 0.0 | 2.6 | 0.00 | 0.00 | 0.00 | 44 | 1009.2 |
| 20260505031559 | 60 | 0 | 0.0 | 0.9 | 0.00 | 0.00 | 0.00 | 43 | 1008.9 |
| 20260505030055 | 62 | 0 | 0.0 | 1.7 | 0.00 | 0.00 | 0.00 | 40 | 1008.8 |
| 20260505024555 | 62 | 0 | 0.0 | 0.9 | 0.00 | 0.00 | 0.00 | 38 | 1008.6 |
| 20260505023054 | 63 | 0 | 0.9 | 4.3 | 0.00 | 0.00 | 0.00 | 36 | 1008.5 |
| 20260505021555 | 64 | 0 | 0.0 | 2.6 | 0.00 | 0.00 | 0.00 | 35 | 1008.5 |
| 20260505020051 | 64 | 5 | 0.9 | 3.5 | 0.00 | 0.00 | 0.00 | 35 | 1008.4 |
| 20260505014605 | 63 | 0 | 0.9 | 5.2 | 0.00 | 0.00 | 0.00 | 36 | 1008.4 |
| 20260505013053 | 64 | 5 | 2.6 | 8.7 | 0.00 | 0.00 | 0.00 | 35 | 1008.4 |
| 20260505011605 | 63 | 5 | 4.3 | 12.2 | 0.00 | 0.00 | 0.00 | 35 | 1008.3 |
| 20260505010051 | 63 | 5 | 6.1 | 13.9 | 0.00 | 0.00 | 0.00 | 37 | 1008.3 |
| 20260505004555 | 63 | 5 | 5.2 | 15.6 | 0.00 | 0.00 | 0.00 | 38 | 1008.7 |
| 20260505003055 | 62 | 5 | 7.0 | 15.6 | 0.00 | 0.00 | 0.00 | 39 | 1008.6 |
| 20260505001604 | 63 | 5 | 5.2 | 13.9 | 0.00 | 0.00 | 0.00 | 38 | 1008.8 |
| 20260505000136 | 62 | 5 | 7.8 | 17.4 | 0.00 | 0.00 | 0.00 | 41 | 1009.1 |
| 20260504234611 | 63 | 5 | 7.8 | 21.7 | 0.00 | 0.00 | 0.00 | 43 | 1009.1 |
| 20260504233104 | 62 | 5 | 11.3 | 21.7 | 0.00 | 0.00 | 0.00 | 45 | 1009.4 |
| 20260504231553 | 63 | 5 | 7.8 | 18.2 | 0.00 | 0.00 | 0.00 | 39 | 1009.4 |
| 20260504230053 | 64 | 5 | 2.6 | 9.6 | 0.00 | 0.00 | 0.00 | 38 | 1009.5 |
| 20260504224607 | 64 | 5 | 3.5 | 8.7 | 0.00 | 0.00 | 0.00 | 38 | 1009.5 |
| 20260504223056 | 64 | 5 | 2.6 | 11.3 | 0.00 | 0.00 | 0.00 | 39 | 1009.4 |
| 20260504221556 | 68 | 5 | 2.6 | 8.7 | 0.00 | 0.00 | 0.00 | 31 | 1009.4 |
| 20260504220059 | 69 | 5 | 0.9 | 7.8 | 0.00 | 0.00 | 0.00 | 26 | 1009.1 |
| 20260504214553 | 69 | 5 | 4.3 | 10.4 | 0.00 | 0.00 | 0.00 | 30 | 1009.1 |
| 20260504213125 | 69 | 5 | 5.2 | 10.4 | 0.00 | 0.00 | 0.00 | 28 | 1009.2 |
| 20260504211559 | 70 | 5 | 5.2 | 12.2 | 0.00 | 0.00 | 0.00 | 29 | 1009.4 |
| 20260504210058 | 70 | 5 | 8.7 | 14.8 | 0.00 | 0.00 | 0.00 | 27 | 1009.4 |
| 20260504204556 | 71 | 5 | 4.3 | 12.2 | 0.00 | 0.00 | 0.00 | 28 | 1009.4 |
| 20260504203109 | 70 | 5 | 2.6 | 8.7 | 0.00 | 0.00 | 0.00 | 30 | 1009.5 |
| 20260504201552 | 71 | 5 | 5.2 | 11.3 | 0.00 | 0.00 | 0.00 | 30 | 1009.9 |
| 20260504200054 | 71 | 5 | 1.7 | 8.7 | 0.00 | 0.00 | 0.00 | 29 | 1009.9 |
| 20260504194604 | 72 | 5 | 1.7 | 7.0 | 0.00 | 0.00 | 0.00 | 29 | 1009.9 |
| 20260504193108 | 69 | 5 | 4.3 | 8.7 | 0.00 | 0.00 | 0.00 | 31 | 1010.3 |
| 20260504191555 | 68 | 5 | 3.5 | 9.6 | 0.00 | 0.00 | 0.00 | 29 | 1010.4 |
| 20260504190114 | 69 | 5 | 2.6 | 7.8 | 0.00 | 0.00 | 0.00 | 33 | 1010.6 |
| 20260504184606 | 69 | 5 | 1.7 | 8.7 | 0.00 | 0.00 | 0.00 | 28 | 1010.8 |
| 20260504183052 | 70 | 5 | 2.6 | 7.8 | 0.00 | 0.00 | 0.00 | 28 | 1010.9 |
| 20260504181555 | 70 | 5 | 1.7 | 4.3 | 0.00 | 0.00 | 0.00 | 31 | 1011.1 |
| 20260504180055 | 69 | 5 | 2.6 | 7.8 | 0.00 | 0.00 | 0.00 | 31 | 1011.3 |
| 20260504174602 | 68 | 5 | 2.6 | 8.7 | 0.00 | 0.00 | 0.00 | 32 | 1011.3 |
| 20260504173106 | 67 | 5 | 1.7 | 5.2 | 0.00 | 0.00 | 0.00 | 34 | 1011.4 |
| 20260504171555 | 67 | 5 | 1.7 | 7.0 | 0.00 | 0.00 | 0.00 | 34 | 1011.5 |
| 20260504140109 | 58 | 5 | 1.7 | 4.3 | 0.00 | 0.00 | 0.00 | 44 | 1011.9 |
| 20260504110117 | 58 | 0 | 0.0 | 4.3 | 0.00 | 0.00 | 0.00 | 36 | 1011.9 |
| 20260504090119 | 58 | 5 | 0.9 | 7.0 | 0.00 | 0.00 | 0.00 | 35 | 1011.4 |
| 20260504081556 | 61 | 5 | 0.9 | 5.2 | 0.00 | 0.00 | 0.00 | 25 | 1011.4 |